| time (UTC) | temp F | wind direction | speed MPH | gust MPH | rain 1hr in | rain 24hr in | rain mn in | humidity % | barometer mb |
| 20260510043547 | 47 | 77 | 0.0 | 0.0 | 0.00 | 0.37 | 0.00 | 93 | 1012.4 |
| 20260510043046 | 47 | 77 | 0.0 | 0.0 | 0.00 | 0.37 | 0.00 | 93 | 1012.4 |
| 20260510042549 | 47 | 78 | 0.0 | 0.0 | 0.00 | 0.37 | 0.00 | 93 | 1012.3 |
| 20260510042046 | 47 | 77 | 0.0 | 3.0 | 0.00 | 0.37 | 0.00 | 93 | 1012.2 |
| 20260510041601 | 47 | 78 | 0.0 | 3.0 | 0.00 | 0.37 | 0.00 | 93 | 1012.2 |
| 20260510041044 | 47 | 78 | 0.0 | 2.0 | 0.00 | 0.37 | 0.00 | 93 | 1012.1 |
| 20260510040547 | 47 | 78 | 1.0 | 2.0 | 0.00 | 0.37 | 0.00 | 93 | 1012.4 |
| 20260510040042 | 47 | 78 | 0.0 | 0.0 | 0.00 | 0.37 | 0.00 | 93 | 1012.7 |
| 20260510035541 | 47 | 77 | 0.0 | 0.0 | 0.00 | 0.37 | 0.37 | 93 | 1012.7 |
| 20260510035041 | 47 | 78 | 0.0 | 0.0 | 0.00 | 0.37 | 0.37 | 93 | 1012.6 |
| 20260510034547 | 47 | 78 | 0.0 | 2.0 | 0.00 | 0.37 | 0.37 | 93 | 1012.4 |
| 20260510034041 | 47 | 78 | 0.0 | 2.0 | 0.00 | 0.37 | 0.37 | 93 | 1012.5 |
| 20260510033539 | 47 | 77 | 0.0 | 1.0 | 0.00 | 0.37 | 0.37 | 93 | 1012.6 |
| 20260510033046 | 47 | 77 | 0.0 | 2.0 | 0.00 | 0.37 | 0.37 | 93 | 1012.7 |
| 20260510032540 | 47 | 78 | 0.0 | 2.0 | 0.00 | 0.37 | 0.37 | 93 | 1012.7 |
| 20260510032040 | 47 | 77 | 0.0 | 2.0 | 0.00 | 0.37 | 0.37 | 93 | 1012.8 |
| 20260510031550 | 47 | 78 | 0.0 | 0.0 | 0.00 | 0.37 | 0.37 | 93 | 1013.0 |
| 20260510031044 | 47 | 78 | 0.0 | 1.0 | 0.00 | 0.37 | 0.37 | 93 | 1012.9 |
| 20260510030539 | 47 | 78 | 0.0 | 0.0 | 0.00 | 0.37 | 0.37 | 93 | 1013.1 |
| 20260510030039 | 47 | 78 | 0.0 | 1.0 | 0.00 | 0.37 | 0.37 | 93 | 1013.0 |
| 20260510025539 | 47 | 77 | 0.0 | 1.0 | 0.00 | 0.37 | 0.37 | 93 | 1013.0 |
| 20260510025039 | 47 | 78 | 0.0 | 2.0 | 0.00 | 0.37 | 0.37 | 93 | 1013.1 |
| 20260510024553 | 47 | 78 | 0.0 | 1.0 | 0.00 | 0.37 | 0.37 | 93 | 1013.1 |
| 20260510024038 | 47 | 78 | 0.0 | 1.0 | 0.00 | 0.37 | 0.37 | 93 | 1013.1 |
| 20260510023538 | 47 | 78 | 0.0 | 1.0 | 0.00 | 0.37 | 0.37 | 93 | 1013.2 |
| 20260510023038 | 47 | 78 | 0.0 | 0.0 | 0.00 | 0.37 | 0.37 | 93 | 1013.2 |
| 20260510022538 | 47 | 78 | 0.0 | 0.0 | 0.00 | 0.37 | 0.37 | 93 | 1013.3 |
| 20260510022038 | 47 | 78 | 0.0 | 0.0 | 0.00 | 0.37 | 0.37 | 93 | 1013.3 |
| 20260510021538 | 47 | 77 | 0.0 | 2.0 | 0.00 | 0.37 | 0.37 | 93 | 1013.3 |
| 20260510021038 | 46 | 77 | 0.0 | 2.0 | 0.00 | 0.37 | 0.37 | 93 | 1013.3 |
| 20260510020538 | 47 | 78 | 0.0 | 1.0 | 0.00 | 0.37 | 0.37 | 93 | 1013.4 |
| 20260510020038 | 46 | 78 | 0.0 | 1.0 | 0.00 | 0.37 | 0.37 | 93 | 1013.5 |
| 20260510015539 | 46 | 77 | 0.0 | 1.0 | 0.00 | 0.37 | 0.37 | 93 | 1013.5 |
| 20260510015038 | 46 | 78 | 0.0 | 1.0 | 0.00 | 0.37 | 0.37 | 93 | 1013.5 |
| 20260510014537 | 46 | 78 | 0.0 | 1.0 | 0.00 | 0.37 | 0.37 | 93 | 1013.4 |
| 20260510014037 | 46 | 78 | 0.0 | 1.0 | 0.00 | 0.37 | 0.37 | 93 | 1013.5 |
| 20260510013540 | 46 | 78 | 0.0 | 2.0 | 0.00 | 0.37 | 0.37 | 92 | 1013.5 |
| 20260510013046 | 46 | 77 | 0.0 | 2.0 | 0.01 | 0.37 | 0.37 | 92 | 1013.5 |
| 20260510012538 | 46 | 77 | 0.0 | 2.0 | 0.01 | 0.37 | 0.37 | 92 | 1013.5 |
| 20260510012036 | 46 | 78 | 0.0 | 2.0 | 0.01 | 0.37 | 0.37 | 92 | 1013.6 |
| 20260510011536 | 46 | 77 | 0.0 | 2.0 | 0.01 | 0.37 | 0.37 | 92 | 1013.6 |
| 20260510011035 | 46 | 77 | 0.0 | 3.0 | 0.01 | 0.37 | 0.37 | 92 | 1013.5 |
| 20260510010535 | 46 | 78 | 0.0 | 3.0 | 0.01 | 0.37 | 0.37 | 92 | 1013.4 |
| 20260510010036 | 46 | 77 | 0.0 | 4.0 | 0.01 | 0.37 | 0.37 | 92 | 1013.4 |
| 20260510005536 | 46 | 78 | 0.0 | 4.0 | 0.01 | 0.37 | 0.37 | 92 | 1013.3 |
| 20260510005035 | 46 | 78 | 0.0 | 2.0 | 0.01 | 0.37 | 0.37 | 92 | 1013.4 |
| 20260510004543 | 46 | 78 | 0.0 | 3.0 | 0.02 | 0.37 | 0.37 | 92 | 1013.4 |
| 20260510004035 | 46 | 78 | 0.0 | 3.0 | 0.02 | 0.37 | 0.37 | 92 | 1013.4 |
| 20260510003535 | 46 | 77 | 0.0 | 1.0 | 0.03 | 0.37 | 0.37 | 92 | 1013.6 |
| 20260510003035 | 46 | 78 | 0.0 | 2.0 | 0.02 | 0.36 | 0.36 | 92 | 1013.6 |
| 20260510002534 | 46 | 78 | 0.0 | 3.0 | 0.03 | 0.36 | 0.36 | 92 | 1013.4 |
| 20260510002034 | 46 | 77 | 0.0 | 3.0 | 0.03 | 0.36 | 0.36 | 92 | 1013.5 |
| 20260510001534 | 46 | 77 | 0.0 | 3.0 | 0.03 | 0.36 | 0.36 | 92 | 1013.4 |
| 20260510001034 | 45 | 78 | 1.0 | 3.0 | 0.04 | 0.36 | 0.36 | 92 | 1013.4 |
| 20260510000533 | 45 | 78 | 1.0 | 7.0 | 0.04 | 0.36 | 0.36 | 92 | 1013.5 |
| 20260510000035 | 45 | 87 | 1.0 | 7.0 | 0.04 | 0.36 | 0.36 | 92 | 1013.4 |
| 20260509235534 | 45 | 81 | 3.0 | 5.0 | 0.05 | 0.36 | 0.36 | 92 | 1013.3 |
| 20260509235036 | 46 | 78 | 2.0 | 4.0 | 0.05 | 0.36 | 0.36 | 92 | 1013.4 |
| 20260509234535 | 46 | 77 | 1.0 | 4.0 | 0.04 | 0.35 | 0.35 | 92 | 1013.5 |
| 20260509234034 | 45 | 77 | 0.0 | 3.0 | 0.04 | 0.35 | 0.35 | 92 | 1013.5 |
| 20260509233533 | 45 | 77 | 1.0 | 6.0 | 0.03 | 0.34 | 0.34 | 92 | 1013.4 |
| 20260509233034 | 45 | 77 | 1.0 | 6.0 | 0.04 | 0.34 | 0.34 | 92 | 1013.3 |
| 20260509232534 | 45 | 88 | 2.0 | 6.0 | 0.03 | 0.33 | 0.33 | 92 | 1013.2 |
| 20260509232033 | 46 | 93 | 1.0 | 6.0 | 0.03 | 0.33 | 0.33 | 92 | 1013.1 |
| 20260509231534 | 46 | 96 | 2.0 | 7.0 | 0.03 | 0.33 | 0.33 | 92 | 1013.0 |
| 20260509231034 | 46 | 87 | 1.0 | 7.0 | 0.03 | 0.32 | 0.32 | 92 | 1013.0 |
| 20260509230534 | 46 | 62 | 2.0 | 5.0 | 0.03 | 0.32 | 0.32 | 91 | 1012.9 |
| 20260509230033 | 46 | 54 | 2.0 | 4.0 | 0.04 | 0.32 | 0.32 | 92 | 1012.9 |
| 20260509225536 | 46 | 45 | 2.0 | 4.0 | 0.03 | 0.31 | 0.31 | 92 | 1012.9 |
| 20260509225032 | 46 | 44 | 1.0 | 4.0 | 0.04 | 0.31 | 0.31 | 92 | 1013.0 |
| 20260509224535 | 46 | 43 | 2.0 | 4.0 | 0.04 | 0.31 | 0.31 | 91 | 1013.1 |
| 20260509224035 | 46 | 43 | 0.0 | 4.0 | 0.05 | 0.31 | 0.31 | 91 | 1013.3 |
| 20260509223532 | 46 | 43 | 0.0 | 4.0 | 0.06 | 0.31 | 0.31 | 91 | 1013.3 |
| 20260509223038 | 46 | 52 | 0.0 | 3.0 | 0.05 | 0.30 | 0.30 | 91 | 1013.1 |
| 20260509222537 | 46 | 52 | 1.0 | 3.0 | 0.07 | 0.30 | 0.30 | 91 | 1013.3 |
| 20260509222035 | 46 | 51 | 0.0 | 3.0 | 0.07 | 0.30 | 0.30 | 91 | 1013.4 |
| 20260509221533 | 46 | 52 | 0.0 | 2.0 | 0.09 | 0.30 | 0.30 | 92 | 1013.4 |
| 20260509221031 | 46 | 52 | 0.0 | 2.0 | 0.09 | 0.28 | 0.28 | 91 | 1013.4 |
| 20260509220530 | 46 | 52 | 0.0 | 3.0 | 0.10 | 0.28 | 0.28 | 91 | 1013.4 |
| 20260509220030 | 46 | 52 | 0.0 | 3.0 | 0.09 | 0.28 | 0.28 | 91 | 1013.3 |
| 20260509215533 | 46 | 52 | 0.0 | 4.0 | 0.10 | 0.28 | 0.28 | 91 | 1013.4 |
| 20260509215031 | 46 | 52 | 1.0 | 4.0 | 0.09 | 0.27 | 0.27 | 91 | 1013.3 |
| 20260509214531 | 46 | 52 | 1.0 | 6.0 | 0.09 | 0.27 | 0.27 | 91 | 1013.4 |
| 20260509214031 | 46 | 53 | 1.0 | 6.0 | 0.08 | 0.26 | 0.26 | 91 | 1013.4 |
| 20260509213530 | 46 | 41 | 0.0 | 5.0 | 0.07 | 0.25 | 0.25 | 91 | 1013.6 |
| 20260509213029 | 46 | 42 | 1.0 | 6.0 | 0.07 | 0.25 | 0.25 | 91 | 1013.6 |
| 20260509212528 | 46 | 66 | 0.0 | 6.0 | 0.05 | 0.23 | 0.23 | 91 | 1013.7 |
| 20260509212026 | 46 | 66 | 1.0 | 8.0 | 0.05 | 0.23 | 0.23 | 91 | 1013.6 |
| 20260509211526 | 46 | 66 | 3.0 | 8.0 | 0.03 | 0.21 | 0.21 | 91 | 1013.4 |
| 20260509211025 | 46 | 84 | 2.0 | 5.0 | 0.02 | 0.19 | 0.19 | 91 | 1013.4 |
| 20260509210525 | 47 | 93 | 0.0 | 4.0 | 0.02 | 0.19 | 0.19 | 91 | 1013.4 |
| 20260509210031 | 47 | 93 | 0.0 | 7.0 | 0.01 | 0.18 | 0.18 | 91 | 1013.4 |
| 20260509205524 | 47 | 94 | 4.0 | 11.0 | 0.01 | 0.18 | 0.18 | 90 | 1013.3 |
| 20260509205028 | 47 | 97 | 2.0 | 11.0 | 0.01 | 0.18 | 0.18 | 91 | 1013.4 |
| 20260509204524 | 47 | 73 | 2.0 | 9.0 | 0.01 | 0.18 | 0.18 | 91 | 1013.4 |
| 20260509204024 | 47 | 73 | 4.0 | 9.0 | 0.01 | 0.18 | 0.18 | 91 | 1013.4 |
| 20260509203524 | 47 | 65 | 1.0 | 5.0 | 0.01 | 0.18 | 0.18 | 90 | 1013.5 |
| 20260509203025 | 47 | 54 | 2.0 | 8.0 | 0.01 | 0.18 | 0.18 | 90 | 1013.4 |
| 20260509202524 | 47 | 96 | 3.0 | 6.0 | 0.01 | 0.18 | 0.18 | 90 | 1013.5 |
| 20260509202024 | 47 | 93 | 2.0 | 6.0 | 0.01 | 0.18 | 0.18 | 90 | 1013.6 |
| 20260509201526 | 47 | 66 | 1.0 | 9.0 | 0.01 | 0.18 | 0.18 | 90 | 1013.7 |
| 20260509201026 | 47 | 83 | 3.0 | 9.0 | 0.00 | 0.17 | 0.17 | 90 | 1013.8 |
| 20260509200523 | 47 | 73 | 1.0 | 5.0 | 0.00 | 0.17 | 0.17 | 90 | 1013.7 |
| 20260509200023 | 47 | 56 | 2.0 | 5.0 | 0.00 | 0.17 | 0.17 | 90 | 1013.7 |
| 20260509195523 | 47 | 56 | 2.0 | 5.0 | 0.00 | 0.17 | 0.17 | 91 | 1013.5 |
| 20260509195022 | 47 | 54 | 2.0 | 9.0 | 0.00 | 0.17 | 0.17 | 91 | 1013.3 |
| 20260509194525 | 47 | 66 | 4.0 | 9.0 | 0.00 | 0.17 | 0.17 | 91 | 1013.2 |
| 20260509194023 | 48 | 92 | 3.0 | 8.0 | 0.00 | 0.17 | 0.17 | 91 | 1013.1 |
| 20260509193522 | 48 | 57 | 2.0 | 8.0 | 0.00 | 0.17 | 0.17 | 91 | 1012.8 |
| 20260509193022 | 48 | 54 | 2.0 | 9.0 | 0.00 | 0.17 | 0.17 | 91 | 1012.7 |
| 20260509192520 | 48 | 41 | 2.0 | 9.0 | 0.00 | 0.17 | 0.17 | 90 | 1013.5 |
| 20260509192021 | 48 | 64 | 4.0 | 8.0 | 0.00 | 0.17 | 0.17 | 91 | 1013.3 |
| 20260509191521 | 48 | 62 | 2.0 | 10.0 | 0.00 | 0.17 | 0.17 | 91 | 1013.3 |
| 20260509191023 | 47 | 71 | 3.0 | 10.0 | 0.01 | 0.17 | 0.17 | 91 | 1013.0 |
| 20260509190519 | 48 | 51 | 3.0 | 10.0 | 0.01 | 0.17 | 0.17 | 91 | 1013.1 |
| 20260509190018 | 48 | 84 | 2.0 | 8.0 | 0.02 | 0.17 | 0.17 | 90 | 1013.6 |
| 20260509185522 | 48 | 87 | 2.0 | 8.0 | 0.02 | 0.17 | 0.17 | 91 | 1013.6 |
| 20260509185018 | 48 | 39 | 3.0 | 10.0 | 0.02 | 0.17 | 0.17 | 91 | 1013.7 |
| 20260509184524 | 47 | 97 | 5.0 | 10.0 | 0.02 | 0.17 | 0.17 | 91 | 1013.7 |
| 20260509184015 | 47 | 83 | 3.0 | 6.0 | 0.02 | 0.17 | 0.17 | 91 | 1013.9 |
| 20260509183515 | 47 | 68 | 2.0 | 4.0 | 0.03 | 0.17 | 0.17 | 90 | 1014.2 |
| 20260509183015 | 47 | 70 | 0.0 | 5.0 | 0.03 | 0.17 | 0.17 | 90 | 1014.1 |
| 20260509182514 | 47 | 70 | 1.0 | 5.0 | 0.04 | 0.17 | 0.17 | 91 | 1014.1 |
| 20260509182013 | 47 | 64 | 3.0 | 5.0 | 0.04 | 0.17 | 0.17 | 90 | 1014.1 |
| 20260509181513 | 47 | 62 | 0.0 | 4.0 | 0.04 | 0.17 | 0.17 | 90 | 1014.3 |
| 20260509181013 | 47 | 62 | 0.0 | 5.0 | 0.03 | 0.16 | 0.16 | 90 | 1014.2 |
| 20260509180513 | 47 | 64 | 0.0 | 5.0 | 0.04 | 0.16 | 0.16 | 90 | 1014.4 |
| 20260509180013 | 47 | 63 | 0.0 | 4.0 | 0.03 | 0.15 | 0.15 | 90 | 1014.4 |
| 20260509175513 | 47 | 63 | 0.0 | 5.0 | 0.04 | 0.15 | 0.15 | 90 | 1014.2 |
| 20260509175014 | 47 | 62 | 1.0 | 5.0 | 0.04 | 0.15 | 0.15 | 90 | 1014.3 |
| 20260509174513 | 47 | 53 | 2.0 | 5.0 | 0.05 | 0.15 | 0.15 | 90 | 1014.2 |
| 20260509174015 | 47 | 52 | 0.0 | 3.0 | 0.06 | 0.15 | 0.15 | 90 | 1014.4 |
| 20260509173511 | 47 | 52 | 1.0 | 4.0 | 0.05 | 0.14 | 0.14 | 90 | 1014.6 |
| 20260509173035 | 47 | 52 | 1.0 | 5.0 | 0.04 | 0.13 | 0.13 | 89 | 1014.9 |
| 20260509172511 | 47 | 52 | 0.0 | 5.0 | 0.04 | 0.13 | 0.13 | 89 | 1014.8 |
| 20260509172011 | 47 | 64 | 1.0 | 4.0 | 0.05 | 0.13 | 0.13 | 89 | 1014.8 |
| 20260509171522 | 47 | 62 | 0.0 | 4.0 | 0.05 | 0.13 | 0.13 | 90 | 1014.8 |
| 20260509171010 | 47 | 62 | 1.0 | 4.0 | 0.06 | 0.13 | 0.13 | 90 | 1014.9 |
| 20260509170510 | 47 | 62 | 0.0 | 3.0 | 0.05 | 0.12 | 0.12 | 89 | 1015.0 |
| 20260509170014 | 47 | 63 | 0.0 | 3.0 | 0.05 | 0.12 | 0.12 | 89 | 1015.0 |
| 20260509165511 | 46 | 62 | 0.0 | 4.0 | 0.05 | 0.11 | 0.11 | 89 | 1014.9 |
| 20260509165009 | 46 | 63 | 2.0 | 4.0 | 0.04 | 0.10 | 0.10 | 89 | 1015.0 |
| 20260509164512 | 46 | 63 | 0.0 | 5.0 | 0.05 | 0.10 | 0.10 | 89 | 1014.9 |
| 20260509164010 | 47 | 62 | 1.0 | 5.0 | 0.04 | 0.09 | 0.09 | 89 | 1014.8 |
| 20260509163510 | 47 | 36 | 0.0 | 3.0 | 0.04 | 0.09 | 0.09 | 88 | 1014.7 |
| 20260509163016 | 47 | 36 | 1.0 | 4.0 | 0.05 | 0.09 | 0.09 | 88 | 1014.7 |
| 20260509162509 | 47 | 35 | 2.0 | 4.0 | 0.04 | 0.08 | 0.08 | 88 | 1014.5 |
| 20260509162009 | 47 | 72 | 0.0 | 4.0 | 0.04 | 0.08 | 0.08 | 88 | 1014.7 |
| 20260509161508 | 47 | 73 | 2.0 | 4.0 | 0.04 | 0.07 | 0.07 | 88 | 1014.8 |
| 20260509161010 | 47 | 110 | 0.0 | 2.0 | 0.04 | 0.07 | 0.07 | 88 | 1014.8 |
| 20260509160508 | 47 | 110 | 0.0 | 2.0 | 0.04 | 0.07 | 0.07 | 88 | 1015.0 |
| 20260509160014 | 47 | 110 | 0.0 | 4.0 | 0.03 | 0.06 | 0.06 | 87 | 1015.2 |
| 20260509155507 | 47 | 110 | 0.0 | 4.0 | 0.03 | 0.06 | 0.06 | 87 | 1015.2 |
| 20260509155010 | 47 | 110 | 0.0 | 3.0 | 0.03 | 0.06 | 0.06 | 87 | 1015.4 |
| 20260509154507 | 47 | 110 | 0.0 | 3.0 | 0.02 | 0.05 | 0.05 | 86 | 1015.4 |
| 20260509154007 | 47 | 111 | 0.0 | 1.0 | 0.03 | 0.05 | 0.05 | 86 | 1015.5 |
| 20260509153507 | 47 | 111 | 0.0 | 2.0 | 0.03 | 0.05 | 0.05 | 86 | 1015.5 |
| 20260509153008 | 47 | 111 | 0.0 | 2.0 | 0.02 | 0.04 | 0.04 | 86 | 1015.5 |
| 20260509152506 | 47 | 111 | 0.0 | 2.0 | 0.02 | 0.04 | 0.04 | 86 | 1015.5 |
| 20260509152006 | 47 | 111 | 0.0 | 2.0 | 0.02 | 0.04 | 0.04 | 85 | 1015.5 |
| 20260509151506 | 47 | 111 | 0.0 | 4.0 | 0.02 | 0.03 | 0.03 | 85 | 1015.6 |
| 20260509151008 | 47 | 111 | 1.0 | 4.0 | 0.02 | 0.03 | 0.03 | 85 | 1015.6 |
| 20260509150506 | 47 | 136 | 1.0 | 3.0 | 0.02 | 0.03 | 0.03 | 85 | 1015.7 |
| 20260509150009 | 48 | 137 | 0.0 | 2.0 | 0.03 | 0.03 | 0.03 | 85 | 1015.8 |
| 20260509145507 | 48 | 136 | 0.0 | 2.0 | 0.03 | 0.03 | 0.03 | 84 | 1015.8 |
| 20260509145006 | 48 | 136 | 0.0 | 3.0 | 0.03 | 0.03 | 0.03 | 84 | 1015.8 |
| 20260509144505 | 48 | 135 | 0.0 | 2.0 | 0.03 | 0.03 | 0.03 | 84 | 1015.9 |
| 20260509144005 | 48 | 136 | 0.0 | 2.0 | 0.02 | 0.02 | 0.02 | 84 | 1015.9 |
| 20260509143506 | 48 | 136 | 0.0 | 2.0 | 0.02 | 0.02 | 0.02 | 83 | 1016.0 |
| 20260509143006 | 48 | 136 | 0.0 | 2.0 | 0.02 | 0.02 | 0.02 | 82 | 1016.0 |
| 20260509142504 | 48 | 136 | 0.0 | 3.0 | 0.02 | 0.02 | 0.02 | 81 | 1015.9 |
| 20260509142004 | 49 | 136 | 0.0 | 3.0 | 0.02 | 0.02 | 0.02 | 80 | 1015.8 |
| 20260509141503 | 49 | 136 | 1.0 | 3.0 | 0.01 | 0.01 | 0.01 | 79 | 1015.8 |
| 20260509141003 | 49 | 135 | 0.0 | 1.0 | 0.01 | 0.01 | 0.01 | 78 | 1015.7 |
| 20260509140504 | 49 | 135 | 0.0 | 2.0 | 0.01 | 0.01 | 0.01 | 77 | 1015.7 |
| 20260509140003 | 49 | 135 | 0.0 | 2.0 | 0.00 | 0.00 | 0.00 | 75 | 1015.5 |
| 20260509135503 | 50 | 135 | 0.0 | 3.0 | 0.00 | 0.00 | 0.00 | 76 | 1015.4 |
| 20260509135003 | 49 | 135 | 0.0 | 3.0 | 0.00 | 0.00 | 0.00 | 74 | 1015.5 |
| 20260509134502 | 50 | 137 | 0.0 | 2.0 | 0.00 | 0.00 | 0.00 | 73 | 1015.4 |
| 20260509134005 | 50 | 137 | 0.0 | 2.0 | 0.00 | 0.00 | 0.00 | 72 | 1015.3 |
| 20260509133503 | 50 | 137 | 0.0 | 2.0 | 0.00 | 0.00 | 0.00 | 72 | 1015.4 |
| 20260509133002 | 50 | 137 | 0.0 | 4.0 | 0.00 | 0.00 | 0.00 | 71 | 1015.4 |
| 20260509132502 | 50 | 137 | 2.0 | 4.0 | 0.00 | 0.00 | 0.00 | 69 | 1015.3 |
| 20260509132001 | 51 | 174 | 0.0 | 3.0 | 0.00 | 0.00 | 0.00 | 67 | 1015.3 |
| 20260509131501 | 51 | 174 | 0.0 | 2.0 | 0.00 | 0.00 | 0.00 | 67 | 1015.4 |
| 20260509131001 | 51 | 174 | 0.0 | 2.0 | 0.00 | 0.00 | 0.00 | 66 | 1015.4 |
| 20260509130600 | 51 | 174 | 0.0 | 3.0 | 0.00 | 0.00 | 0.00 | 66 | 1015.4 |
| 20260509130127 | 50 | 177 | 0.0 | 3.0 | 0.00 | 0.00 | 0.00 | 65 | 1015.3 |
| 20260509125558 | 50 | 177 | 0.0 | 4.0 | 0.00 | 0.00 | 0.00 | 65 | 1015.4 |
| 20260509125057 | 50 | 175 | 1.0 | 4.0 | 0.00 | 0.00 | 0.00 | 65 | 1015.5 |
| 20260509124556 | 50 | 172 | 1.0 | 5.0 | 0.00 | 0.00 | 0.00 | 67 | 1015.5 |
| 20260509124055 | 50 | 211 | 1.0 | 3.0 | 0.00 | 0.00 | 0.00 | 70 | 1015.5 |
| 20260509123553 | 49 | 211 | 0.0 | 2.0 | 0.00 | 0.00 | 0.00 | 72 | 1015.6 |
| 20260509123118 | 49 | 211 | 0.0 | 2.0 | 0.00 | 0.00 | 0.00 | 73 | 1015.6 |
| 20260509122551 | 49 | 210 | 0.0 | 2.0 | 0.00 | 0.00 | 0.00 | 76 | 1015.5 |
| 20260509122051 | 49 | 210 | 0.0 | 1.0 | 0.00 | 0.00 | 0.00 | 78 | 1015.4 |
| 20260509121549 | 48 | 211 | 0.0 | 1.0 | 0.00 | 0.00 | 0.00 | 78 | 1015.3 |
| 20260509121049 | 48 | 211 | 0.0 | 0.0 | 0.00 | 0.00 | 0.00 | 79 | 1015.2 |
| 20260509120548 | 47 | 211 | 0.0 | 1.0 | 0.00 | 0.00 | 0.00 | 79 | 1015.2 |
| 20260509120051 | 47 | 210 | 0.0 | 1.0 | 0.00 | 0.00 | 0.00 | 80 | 1015.4 |
| 20260509115547 | 47 | 211 | 0.0 | 0.0 | 0.00 | 0.00 | 0.00 | 81 | 1015.3 |
| 20260509115044 | 46 | 210 | 0.0 | 0.0 | 0.00 | 0.00 | 0.00 | 82 | 1015.3 |
| 20260509114611 | 46 | 211 | 0.0 | 0.0 | 0.00 | 0.00 | 0.00 | 82 | 1015.4 |
| 20260509114042 | 45 | 210 | 0.0 | 0.0 | 0.00 | 0.00 | 0.00 | 83 | 1015.4 |
| 20260509113540 | 44 | 210 | 0.0 | 1.0 | 0.00 | 0.00 | 0.00 | 85 | 1015.5 |
| 20260509113039 | 44 | 211 | 0.0 | 2.0 | 0.00 | 0.00 | 0.00 | 86 | 1015.6 |
| 20260509112540 | 44 | 211 | 0.0 | 0.0 | 0.00 | 0.00 | 0.00 | 87 | 1015.7 |
| 20260509112037 | 43 | 211 | 0.0 | 0.0 | 0.00 | 0.00 | 0.00 | 88 | 1015.7 |
| 20260509111536 | 43 | 211 | 0.0 | 0.0 | 0.00 | 0.00 | 0.00 | 88 | 1015.7 |
| 20260509111035 | 43 | 210 | 0.0 | 0.0 | 0.00 | 0.00 | 0.00 | 88 | 1015.6 |
| 20260509110533 | 42 | 210 | 0.0 | 0.0 | 0.00 | 0.00 | 0.00 | 89 | 1015.6 |
| 20260509110033 | 41 | 211 | 0.0 | 0.0 | 0.00 | 0.00 | 0.00 | 89 | 1015.6 |
| 20260509105532 | 41 | 211 | 0.0 | 0.0 | 0.00 | 0.00 | 0.00 | 89 | 1015.6 |
| 20260509105031 | 41 | 211 | 0.0 | 0.0 | 0.00 | 0.00 | 0.00 | 89 | 1015.7 |
| 20260509104530 | 40 | 211 | 0.0 | 0.0 | 0.00 | 0.00 | 0.00 | 89 | 1015.6 |
| 20260509104028 | 40 | 211 | 0.0 | 1.0 | 0.00 | 0.00 | 0.00 | 89 | 1015.6 |
| 20260509103528 | 39 | 210 | 0.0 | 1.0 | 0.00 | 0.00 | 0.00 | 89 | 1015.7 |
| 20260509103028 | 39 | 211 | 0.0 | 1.0 | 0.00 | 0.00 | 0.00 | 89 | 1015.8 |
| 20260509102527 | 39 | 210 | 0.0 | 1.0 | 0.00 | 0.00 | 0.00 | 89 | 1015.7 |
| 20260509102026 | 39 | 211 | 0.0 | 1.0 | 0.00 | 0.00 | 0.00 | 89 | 1015.6 |
| 20260509101535 | 38 | 211 | 0.0 | 0.0 | 0.00 | 0.00 | 0.00 | 89 | 1015.4 |
| 20260509101027 | 37 | 211 | 0.0 | 0.0 | 0.00 | 0.00 | 0.00 | 89 | 1015.4 |
| 20260509100524 | 37 | 210 | 0.0 | 0.0 | 0.00 | 0.00 | 0.00 | 89 | 1015.4 |
| 20260509100023 | 36 | 211 | 0.0 | 0.0 | 0.00 | 0.00 | 0.00 | 88 | 1015.2 |
| 20260509095523 | 36 | 210 | 0.0 | 0.0 | 0.00 | 0.00 | 0.00 | 88 | 1015.2 |
| 20260509095023 | 36 | 211 | 0.0 | 0.0 | 0.00 | 0.00 | 0.00 | 88 | 1015.1 |
| 20260509094530 | 35 | 210 | 0.0 | 0.0 | 0.00 | 0.00 | 0.00 | 88 | 1015.0 |
| 20260509094020 | 35 | 211 | 0.0 | 0.0 | 0.00 | 0.00 | 0.00 | 88 | 1014.9 |
| 20260509093519 | 35 | 211 | 0.0 | 0.0 | 0.00 | 0.00 | 0.00 | 88 | 1014.8 |
| 20260509093019 | 35 | 211 | 0.0 | 0.0 | 0.00 | 0.00 | 0.00 | 88 | 1015.0 |
| 20260509092517 | 35 | 210 | 0.0 | 0.0 | 0.00 | 0.00 | 0.00 | 87 | 1015.0 |
| 20260509092017 | 35 | 212 | 0.0 | 0.0 | 0.00 | 0.00 | 0.00 | 87 | 1014.9 |
| 20260509091517 | 35 | 210 | 0.0 | 0.0 | 0.00 | 0.00 | 0.00 | 87 | 1014.8 |
| 20260509091017 | 35 | 211 | 0.0 | 0.0 | 0.00 | 0.00 | 0.00 | 88 | 1015.0 |
| 20260509090518 | 35 | 210 | 0.0 | 1.0 | 0.00 | 0.00 | 0.00 | 87 | 1014.9 |
| 20260509090015 | 35 | 211 | 0.0 | 1.0 | 0.00 | 0.00 | 0.00 | 87 | 1014.7 |
| 20260509085514 | 35 | 211 | 0.0 | 0.0 | 0.00 | 0.00 | 0.00 | 87 | 1014.6 |
| 20260509085014 | 36 | 210 | 0.0 | 0.0 | 0.00 | 0.00 | 0.00 | 87 | 1014.6 |
| 20260509084513 | 36 | 211 | 0.0 | 0.0 | 0.00 | 0.00 | 0.00 | 87 | 1014.7 |
| 20260509084016 | 36 | 211 | 0.0 | 0.0 | 0.00 | 0.00 | 0.00 | 87 | 1014.6 |
| 20260509083511 | 36 | 211 | 0.0 | 0.0 | 0.00 | 0.00 | 0.00 | 87 | 1014.6 |
| 20260509083011 | 36 | 211 | 0.0 | 0.0 | 0.00 | 0.00 | 0.00 | 87 | 1014.6 |
| 20260509082514 | 36 | 210 | 0.0 | 0.0 | 0.00 | 0.00 | 0.00 | 87 | 1014.5 |
| 20260509082010 | 36 | 210 | 0.0 | 0.0 | 0.00 | 0.00 | 0.00 | 87 | 1014.5 |
| 20260509081510 | 36 | 211 | 0.0 | 0.0 | 0.00 | 0.00 | 0.00 | 87 | 1014.5 |
| 20260509081009 | 36 | 211 | 0.0 | 0.0 | 0.00 | 0.00 | 0.00 | 86 | 1014.5 |
| 20260509080509 | 36 | 210 | 0.0 | 0.0 | 0.00 | 0.00 | 0.00 | 86 | 1014.5 |
| 20260509080008 | 36 | 210 | 0.0 | 0.0 | 0.00 | 0.00 | 0.00 | 86 | 1014.6 |
| 20260509075510 | 36 | 210 | 0.0 | 0.0 | 0.00 | 0.00 | 0.00 | 86 | 1014.4 |
| 20260509075007 | 37 | 211 | 0.0 | 0.0 | 0.00 | 0.00 | 0.00 | 86 | 1014.4 |
| 20260509074505 | 37 | 211 | 0.0 | 1.0 | 0.00 | 0.00 | 0.00 | 86 | 1014.4 |
| 20260509074006 | 37 | 211 | 0.0 | 1.0 | 0.00 | 0.00 | 0.00 | 86 | 1014.4 |
| 20260509073504 | 37 | 211 | 0.0 | 0.0 | 0.00 | 0.00 | 0.00 | 86 | 1014.3 |
| 20260509073008 | 37 | 211 | 0.0 | 0.0 | 0.00 | 0.00 | 0.00 | 86 | 1014.2 |
| 20260509072504 | 37 | 210 | 0.0 | 0.0 | 0.00 | 0.00 | 0.00 | 86 | 1014.3 |
| 20260509072006 | 37 | 210 | 0.0 | 0.0 | 0.00 | 0.00 | 0.00 | 85 | 1014.3 |
| 20260509071504 | 37 | 211 | 0.0 | 0.0 | 0.00 | 0.00 | 0.00 | 85 | 1014.3 |
| 20260509071009 | 37 | 211 | 0.0 | 0.0 | 0.00 | 0.00 | 0.00 | 85 | 1014.2 |
| 20260509070504 | 37 | 211 | 0.0 | 0.0 | 0.00 | 0.00 | 0.00 | 85 | 1014.2 |
| 20260509070004 | 37 | 211 | 0.0 | 0.0 | 0.00 | 0.00 | 0.00 | 85 | 1014.3 |
| 20260509065503 | 37 | 211 | 0.0 | 0.0 | 0.00 | 0.00 | 0.00 | 85 | 1014.2 |
| 20260509065003 | 37 | 211 | 0.0 | 0.0 | 0.00 | 0.00 | 0.00 | 85 | 1014.4 |
| 20260509064503 | 37 | 211 | 0.0 | 0.0 | 0.00 | 0.00 | 0.00 | 85 | 1014.4 |
| 20260509064005 | 37 | 211 | 0.0 | 1.0 | 0.00 | 0.00 | 0.00 | 85 | 1014.4 |
| 20260509063500 | 37 | 211 | 0.0 | 1.0 | 0.00 | 0.00 | 0.00 | 84 | 1014.5 |
| 20260509063100 | 37 | 211 | 0.0 | 0.0 | 0.00 | 0.00 | 0.00 | 84 | 1014.4 |
| 20260509062604 | 37 | 211 | 0.0 | 2.0 | 0.00 | 0.00 | 0.00 | 84 | 1014.4 |
| 20260509062059 | 38 | 211 | 0.0 | 2.0 | 0.00 | 0.00 | 0.00 | 84 | 1014.5 |
| 20260509061607 | 38 | 210 | 0.0 | 2.0 | 0.00 | 0.00 | 0.00 | 84 | 1014.5 |
| 20260509061057 | 38 | 211 | 0.0 | 2.0 | 0.00 | 0.00 | 0.00 | 84 | 1014.4 |
| 20260509060556 | 38 | 211 | 0.0 | 2.0 | 0.00 | 0.00 | 0.00 | 84 | 1014.4 |
| 20260509060056 | 38 | 211 | 0.0 | 0.0 | 0.00 | 0.00 | 0.00 | 84 | 1014.3 |
| 20260509055555 | 38 | 210 | 0.0 | 0.0 | 0.00 | 0.00 | 0.00 | 83 | 1014.2 |
| 20260509055057 | 38 | 210 | 0.0 | 0.0 | 0.00 | 0.00 | 0.00 | 83 | 1014.3 |
| 20260509054609 | 38 | 210 | 0.0 | 0.0 | 0.00 | 0.00 | 0.00 | 82 | 1014.3 |
| 20260509054053 | 38 | 211 | 0.0 | 0.0 | 0.00 | 0.00 | 0.00 | 82 | 1014.2 |
| 20260509053551 | 39 | 211 | 0.0 | 0.0 | 0.00 | 0.00 | 0.00 | 82 | 1014.2 |
| 20260509053056 | 39 | 211 | 0.0 | 0.0 | 0.00 | 0.00 | 0.00 | 82 | 1014.2 |
| 20260509052549 | 39 | 211 | 0.0 | 0.0 | 0.00 | 0.00 | 0.00 | 82 | 1014.2 |
| 20260509052050 | 39 | 211 | 0.0 | 0.0 | 0.00 | 0.00 | 0.00 | 82 | 1014.1 |
| 20260509051549 | 39 | 210 | 0.0 | 0.0 | 0.00 | 0.00 | 0.00 | 81 | 1014.1 |
| 20260509051048 | 40 | 210 | 0.0 | 0.0 | 0.00 | 0.00 | 0.00 | 81 | 1014.0 |
| 20260509050548 | 40 | 210 | 0.0 | 0.0 | 0.00 | 0.00 | 0.00 | 81 | 1014.1 |
| 20260509050046 | 40 | 210 | 0.0 | 0.0 | 0.00 | 0.00 | 0.00 | 80 | 1013.9 |
| 20260509045547 | 40 | 210 | 0.0 | 0.0 | 0.00 | 0.00 | 0.00 | 80 | 1014.0 |
| 20260509045045 | 40 | 211 | 0.0 | 2.0 | 0.00 | 0.00 | 0.00 | 79 | 1013.9 |
| 20260509044544 | 40 | 211 | 0.0 | 2.0 | 0.00 | 0.00 | 0.00 | 79 | 1014.0 |
| 20260509044044 | 41 | 210 | 0.0 | 2.0 | 0.00 | 0.00 | 0.00 | 79 | 1013.9 |